DW7531 Weather Reports


time (UTC)temp
C
wind
direction
speed
KPH
gust
KPH
rain 1hr
cm
rain 24hr
cm
rain mn
cm
humidity
%
barometer
mb
20260507073100 14 264 0.0 0.0 0.00 0.00 0.00 73 1016.2
20260507071609 14 264 0.0 0.0 0.00 0.00 0.00 73 1016.3
20260507070055 14 264 0.0 0.0 0.00 0.00 0.00 72 1016.5
20260507064608 15 264 0.0 0.0 0.00 0.00 0.00 71 1016.5
20260507063056 15 264 0.0 0.0 0.00 0.00 0.00 69 1016.5
20260507061554 15 264 0.0 0.0 0.00 0.00 0.00 69 1016.5
20260507060053 15 264 0.0 0.0 0.00 0.00 0.00 69 1016.6
20260507054606 15 264 0.0 0.0 0.00 0.00 0.00 69 1016.5
20260507053052 15 264 0.0 0.0 0.00 0.00 0.00 68 1016.5
20260507051554 16 264 0.0 0.0 0.00 0.00 0.00 66 1016.4
20260507050051 16 264 0.0 0.0 0.00 0.00 0.00 67 1016.4
20260507044552 16 264 0.0 0.0 0.00 0.00 0.00 66 1016.4
20260507043058 17 264 0.0 0.0 0.00 0.00 0.00 65 1016.3
20260507041602 17 264 0.0 3.2 0.00 0.00 0.00 65 1016.2
20260507040055 17 264 0.0 8.0 0.00 0.00 0.00 63 1015.9
20260507034553 17 264 0.0 8.0 0.00 0.00 0.00 62 1015.7
20260507033050 18 264 3.2 9.7 0.00 0.00 0.00 60 1015.5
20260507031550 18 265 4.8 14.5 0.00 0.00 0.00 59 1015.4
20260507030057 20 280 6.4 12.9 0.00 0.00 0.00 56 1015.2
20260507024548 20 286 1.6 11.3 0.00 0.00 0.00 53 1015.0
20260507023058 21 286 0.0 4.8 0.00 0.00 0.00 50 1014.9
20260507021551 22 287 0.0 9.7 0.00 0.00 0.00 48 1014.6
20260507020046 22 292 0.0 8.0 0.00 0.00 0.00 46 1014.5
20260507014557 23 302 0.0 4.8 0.00 0.00 0.00 45 1014.4
20260507013103 23 302 0.0 9.7 0.00 0.00 0.00 43 1014.3
20260507011544 24 263 0.0 12.9 0.00 0.00 0.00 43 1014.1
20260507010043 24 261 0.0 6.4 0.00 0.00 0.00 43 1014.1
20260507004542 25 262 3.2 12.9 0.00 0.00 0.00 43 1014.1
20260507003041 25 265 4.8 12.9 0.00 0.00 0.00 42 1014.0
20260507001554 25 257 0.0 8.0 0.00 0.00 0.00 42 1013.9
20260507000039 25 292 0.0 11.3 0.00 0.00 0.00 42 1013.8
20260506234538 25 348 0.0 16.1 0.00 0.00 0.00 41 1013.8
20260506233043 26 269 1.6 14.5 0.00 0.00 0.00 40 1013.9
20260506231540 26 342 3.2 12.9 0.00 0.00 0.00 40 1013.9
20260506230034 27 350 1.6 9.7 0.00 0.00 0.00 36 1014.0
20260506224533 27 298 3.2 11.3 0.00 0.00 0.00 36 1014.2
20260506223030 27 290 0.0 12.9 0.00 0.00 0.00 36 1014.4
20260506221529 26 293 4.8 12.9 0.00 0.00 0.00 35 1014.5
20260506220028 27 313 1.6 9.7 0.00 0.00 0.00 33 1014.7
20260506214524 26 267 3.2 12.9 0.00 0.00 0.00 37 1014.9
20260506213022 26 272 3.2 20.9 0.00 0.00 0.00 36 1015.1
20260506211520 26 286 0.0 11.3 0.00 0.00 0.00 40 1015.2
20260506210018 25 265 0.0 12.9 0.00 0.00 0.00 40 1015.5
20260506204518 26 247 0.0 12.9 0.00 0.00 0.00 38 1015.7
20260506203016 25 259 3.2 12.9 0.00 0.00 0.00 38 1015.7
20260506201512 25 317 1.6 14.5 0.00 0.00 0.00 39 1016.1
20260506200012 25 343 1.6 12.9 0.00 0.00 0.00 40 1016.3
20260506194511 26 11 1.6 9.7 0.00 0.00 0.00 39 1016.4
20260506193005 25 254 0.0 11.3 0.00 0.00 0.00 41 1016.7
20260506191502 25 189 0.0 4.8 0.00 0.00 0.00 41 1016.9
20260506190100 23 188 0.0 6.4 0.00 0.00 0.00 42 1017.0
20260506184557 23 186 0.0 6.4 0.00 0.00 0.00 42 1017.2
20260506183055 23 185 0.0 6.4 0.00 0.00 0.00 43 1017.4
20260506181550 21 175 0.0 6.4 0.00 0.00 0.00 46 1017.5
20260506180052 21 171 0.0 6.4 0.00 0.00 0.00 46 1017.6
20260506174545 21 171 0.0 0.0 0.00 0.00 0.00 49 1017.6
20260506173041 20 171 0.0 0.0 0.00 0.00 0.00 50 1017.7
20260506171548 20 171 0.0 0.0 0.00 0.00 0.00 53 1017.7
20260506170036 18 171 0.0 0.0 0.00 0.00 0.00 55 1017.8
20260506164528 17 170 0.0 0.0 0.00 0.00 0.00 56 1017.9
20260506163027 17 169 0.0 0.0 0.00 0.00 0.00 56 1017.9
20260506161534 17 169 0.0 0.0 0.00 0.00 0.00 62 1017.9
20260506160016 16 169 0.0 0.0 0.00 0.00 0.00 64 1018.0
20260506154512 15 179 0.0 0.0 0.00 0.00 0.00 69 1017.9
20260506153009 14 182 0.0 0.0 0.00 0.00 0.00 75 1017.9
20260506151502 12 183 0.0 0.0 0.00 0.00 0.00 79 1018.0
20260506150104 12 183 0.0 0.0 0.00 0.00 0.00 81 1018.1
20260506144554 11 183 0.0 0.0 0.00 0.00 0.00 84 1018.1
20260506143051 11 187 0.0 4.8 0.00 0.00 0.00 85 1018.0
20260506141544 10 221 0.0 0.0 0.00 0.00 0.00 86 1018.0
20260506140045 8 226 0.0 3.2 0.00 0.00 0.00 86 1017.9
20260506134606 8 226 0.0 0.0 0.00 0.00 0.00 86 1017.8
20260506133032 8 226 0.0 0.0 0.00 0.00 0.00 86 1017.6
20260506131532 8 226 0.0 0.0 0.00 0.00 0.00 86 1017.5
20260506130028 8 226 0.0 0.0 0.00 0.00 0.00 86 1017.5
20260506124527 8 226 0.0 0.0 0.00 0.03 0.00 85 1017.3
20260506123026 8 226 0.0 0.0 0.00 0.03 0.00 85 1017.2
20260506121524 8 226 0.0 0.0 0.00 0.03 0.00 85 1017.2
20260506120024 8 226 0.0 0.0 0.00 0.03 0.00 84 1017.0
20260506114532 8 226 0.0 0.0 0.00 0.03 0.00 84 1017.1
20260506113024 8 226 0.0 0.0 0.00 0.03 0.00 83 1017.2
20260506111520 8 226 0.0 0.0 0.00 0.03 0.00 83 1017.1
20260506110019 8 226 0.0 0.0 0.00 0.03 0.00 82 1017.0
20260506104518 8 226 0.0 0.0 0.00 0.03 0.00 82 1017.0
20260506103023 8 226 0.0 0.0 0.00 0.03 0.00 81 1017.1
20260506101514 9 226 0.0 0.0 0.00 0.03 0.00 81 1016.9
20260506100023 9 226 0.0 0.0 0.00 0.03 0.00 81 1016.9
20260506094516 9 226 0.0 0.0 0.00 0.03 0.00 81 1017.0
20260506093012 9 226 0.0 0.0 0.00 0.03 0.00 81 1017.0
20260506091511 9 226 0.0 0.0 0.00 0.03 0.00 81 1017.1
20260506090009 9 226 0.0 0.0 0.00 0.03 0.00 80 1017.0
20260506084508 9 226 0.0 0.0 0.00 0.03 0.00 79 1017.1
20260506083006 10 226 0.0 0.0 0.00 0.03 0.00 78 1017.2
20260506081506 10 226 0.0 0.0 0.00 0.03 0.00 77 1017.2